This demonstration page uses our WeatherBlox Daily Observations layout. Learn more.

Left ArrowRight Arrow

44.31136, -96.79839

Hourly Observations for June 11, 2019

Temp ( °F °C ) Dew Point ( °F °C ) Humidity (%) Winds ( mph kmh ) Pressure ( in mb ) Visibility ( mi km ) Precip ( " mm )
1:56 am 01:56 Cloudy 64 17.8 46 7.8 52 52 SW 14 22 30.17 1022 10 16 0.00 0.00
2:56 am 02:56 Cloudy with Light Rain 58 14.4 51 10.6 78 78 SW 16 26 30.20 1023 10 16 0.00 0.03
3:56 am 03:56 Cloudy with Light Rain 56 13.3 53 11.7 90 90 ESE 7 11 30.17 1022 10 16 0.00 0.03
4:56 am 04:56 Cloudy 56 13.3 53 11.7 90 90 ESE 5 7 30.15 1021 10 16 0.01 0.25
5:56 am 05:56 Cloudy 55 12.8 52 11.1 90 90 ESE 8 13 30.16 1022 10 16 0.00 0.00
6:56 am 06:56 Cloudy with Light Rain 55 12.8 52 11.1 90 90 SE 8 13 30.16 1021 10 16 0.00 0.03
7:56 am 07:56 Cloudy with Light Rain 54 12.2 52 11.1 93 93 ESE 9 15 30.15 1021 6 10 0.17 4.32
8:56 am 08:56 Cloudy 55 12.8 53 11.7 93 93 ESE 10 17 30.14 1021 10 16 0.02 0.51
9:56 am 09:56 Cloudy with Light Rain 56 13.3 53 11.7 90 90 ESE 10 17 30.12 1020 10 16 0.02 0.51
10:56 am 10:56 Sunny 59 15 53 11.7 81 81 ESE 12 19 30.11 1020 10 16 0.00 0.03
11:56 am 11:56 Sunny 61 16.1 53 11.7 75 75 SE 12 19 30.08 1019 10 16 0.00 0.00
12:56 pm 12:56 Sunny 63 17.2 55 12.8 76 76 SE 8 13 30.07 1018 10 16 0.00 0.00
1:56 pm 13:56 Mostly Sunny 66 18.9 57 13.9 73 73 E 9 15 N/A 10 16 0.00 0.00
2:56 pm 14:56 Mostly Cloudy 68 20 54 12.2 61 61 ESE 5 7 30.02 1017 10 16 0.00 0.00
3:51 pm 15:51 Partly Cloudy with Nearby Thunderstorms 66 19 54 12 64 64 N 7 11 29.93 1013 10 16 0.00 0.00
3:56 pm 15:56 Partly Cloudy with Nearby Thunderstorms 66 18.9 54 12.2 65 65 N 6 9 30.00 1016 10 16 0.00 0.00
4:17 pm 16:17 Mostly Cloudy with Light Rain 64 18 55 13 73 73 N 5 7 29.92 1013 10 16 0.00 0.00
4:56 pm 16:56 Cloudy 61 16.1 57 13.9 87 87 NNE 9 15 30.00 1016 10 16 0.00 0.00
5:56 pm 17:56 Partly Cloudy 62 16.7 55 12.8 78 78 NE 8 13 30.00 1016 10 16 0.00 0.00
6:56 pm 18:56 Sunny 62 16.7 54 12.2 75 75 NE 10 17 30.01 1016 10 16 0.00 0.00
8:56 pm 20:56 Sunny 61 16.1 55 12.8 81 81 NE 3 6 30.02 1017 10 16 0.01 0.25
9:56 pm 21:56 Clear 59 15 55 12.8 87 87 Calm 30.05 1018 10 16 0.00 0.00
10:56 pm 22:56 Mostly Cloudy 56 13.3 55 12.8 97 97 W 6 9 30.07 1018 10 16 0.00 0.00
11:34 pm 23:34 Mostly Cloudy 57 14 54 12 88 88 NNW 18 30 30.03 1017 10 16 0.00 0.00
11:46 pm 23:46 Mostly Cloudy 57 14 52 11 82 82 NNW 16 26 30.03 1017 10 16 0.00 0.00
11:56 pm 23:56 Cloudy with Rain 56 13.3 51 10.6 84 84 N 17 28 30.08 1019 10 16 0.00 0.03

Powered by AerisWeather